Wind_Speed
35 36 37 39 40 43 44 45 47 49 51 51 52 53 55 57 57 62 68 76 82 82 84 85 86 84 86 80 73 71 69 67 67 66 63 60 58 54 51 47 45 45 40 39 39 41 38
38 40 41 43 45 46 48 48 49 51 53 53 53 53 51 51 51 53 61 70 77 84 84 81 85 87 89 90 78 77 74 69 68 69 66 66 62 59 55 53 51 48 44 45 43 44 42
41 43 45 47 49 49 50 50 50 51 53 53 52 49 47 46 48 47 50 61 73 80 86 88 69 83 92 84 89 79 78 76 72 73 71 68 66 66 60 58 54 52 52 48 47 47 45
44 46 48 49 51 50 50 49 50 51 53 52 50 47 46 45 45 45 44 47 63 76 84 88 96 75 87 89 85 88 77 76 74 73 73 73 71 70 67 63 58 59 56 52 49 52 48
46 48 49 50 51 50 50 50 49 51 52 50 47 45 44 44 44 44 44 43 48 64 78 90 96 93 67 89 88 83 88 79 78 75 75 75 74 72 70 67 65 63 59 56 53 54 50
47 48 48 50 50 49 50 50 50 50 50 48 46 43 42 43 43 42 44 43 43 49 66 85 95 98 83 66 87 87 81 93 79 77 78 77 76 75 75 74 75 69 66 66 59 56 52
47 47 48 48 49 48 48 50 49 48 48 47 44 42 41 40 41 42 41 42 41 40 47 67 89 96 98 83 71 86 81 82 90 84 85 80 82 81 78 76 69 67 64 65 60 53 48
48 47 47 47 47 47 48 47 46 46 47 46 42 40 38 38 39 39 39 38 40 41 39 41 70 96 99 102 71 74 81 81 79 92 78 84 85 82 76 72 71 68 68 67 62 63 62
46 47 46 46 47 47 47 46 45 46 48 46 40 38 36 36 36 37 37 37 41 39 44 29 46 88 102 100 94 60 73 83 84 73 89 97 84 77 78 75 75 74 72 69 66 49 63
46 45 46 47 47 47 47 45 45 47 47 44 39 36 35 34 35 35 35 40 38 37 43 33 33 59 91 96 96 71 60 64 82 79 80 74 75 80 86 82 80 79 76 68 63 55 55
44 44 45 47 47 47 46 43 45 48 45 42 37 35 34 34 34 34 34 37 36 33 39 24 23 27 61 87 94 96 92 64 66 74 81 75 76 77 69 73 81 83 73 72 75 68 63
41 43 45 46 45 47 43 43 46 47 43 40 36 34 33 36 36 33 28 30 29 29 33 25 25 22 25 58 80 91 90 67 60 63 66 78 67 72 80 71 60 64 71 67 70 65 61
41 43 45 45 44 43 42 44 47 45 40 38 35 33 33 35 34 30 23 21 28 29 26 20 18 8 11 21 49 72 84 80 55 57 63 62 79 76 72 78 76 62 73 72 70 56 70
40 42 44 44 42 41 42 45 47 43 39 36 35 32 32 33 32 28 20 23 30 23 24 25 21 23 15 9 19 33 62 81 76 60 57 51 62 74 84 78 75 76 79 78 74 75 66
40 41 42 40 39 41 44 47 47 42 38 35 34 31 31 31 30 24 22 26 24 24 20 23 16 20 6 9 15 18 30 57 77 93 81 60 53 66 71 75 80 81 82 72 76 75 71
38 39 40 38 39 41 45 48 45 41 37 35 31 28 30 29 28 18 23 21 21 23 23 27 16 12 21 16 14 19 28 37 51 55 40 69 59 52 62 71 73 75 74 75 73 70 60
36 38 37 37 38 41 44 47 44 40 37 33 30 25 28 26 19 23 17 15 18 22 26 25 22 21 26 31 18 17 31 31 44 49 60 40 44 59 44 51 69 65 74 85 81 84 77
36 36 36 36 39 42 43 44 42 39 36 34 29 24 26 26 25 26 17 13 15 17 23 25 27 25 23 25 36 26 34 29 35 49 49 57 47 49 48 54 45 44 54 60 66 72 75
36 36 36 37 39 41 44 43 40 38 35 34 30 23 25 28 24 23 21 20 18 22 24 25 24 25 21 20 28 36 32 33 28 48 43 47 57 57 52 56 58 47 50 60 59 57 61
36 36 37 38 39 41 42 44 40 38 35 33 31 26 22 26 27 22 23 24 25 21 24 26 26 25 23 20 18 31 34 26 43 40 53 44 54 64 58 55 54 52 64 56 54 54 54
37 37 38 38 38 40 43 44 41 38 35 33 31 28 28 24 24 25 26 26 29 29 28 21 21 25 27 24 23 24 31 33 45 47 46 55 43 57 65 60 63 64 60 50 43 57 52
38 38 39 40 39 40 43 45 41 38 35 32 32 31 30 28 26 25 27 26 31 30 31 24 24 23 23 25 25 26 30 34 40 48 53 47 46 50 59 56 66 74 73 70 58 49 49
39 40 39 40 40 41 43 44 41 39 36 32 32 31 33 28 29 29 25 25 30 34 33 34 31 28 27 24 29 25 25 31 35 44 49 59 52 49 57 56 54 63 65 70 65 59 61
40 40 40 41 41 42 43 42 39 39 36 32 32 33 36 32 32 31 25 26 30 38 43 39 35 39 32 34 33 34 33 31 28 29 37 50 60 60 55 59 67 44 48 54 66 61 58
40 40 39 40 41 43 42 41 39 38 35 33 31 36 40 35 33 27 28 29 32 37 42 37 38 38 39 36 36 36 33 32 26 27 28 28 36 51 64 68 67 65 68 60 57 61 68
40 39 39 39 42 43 41 39 38 37 34 33 31 36 41 39 26 28 27 23 25 29 32 30 33 37 30 33 32 37 34 30 32 29 29 32 35 41 38 39 56 54 56 62 76 78 72
39 39 38 39 42 41 42 39 36 36 33 33 31 35 39 38 21 20 15 16 19 19 24 22 21 31 32 27 29 32 34 33 33 32 34 37 38 42 39 43 44 29 48 56 71 73 68
39 39 39 40 40 40 42 37 35 35 33 33 32 35 39 35 14 16 13 9 14 17 20 16 20 22 26 28 24 24 28 27 32 34 34 38 39 39 40 40 40 21 44 54 49 53 72
38 38 40 39 39 41 40 36 34 34 33 33 31 36 37 26 7 11 11 9 13 18 21 22 24 25 25 22 26 28 30 28 29 31 32 37 37 38 42 42 31 40 43 42 44 47 50
Wind_Direction
302 305 305 305 306 308 310 310 311 313 312 305 300 297 290 278 271 264 252 244 240 237 238 236 235 235 229 233 228 229 227 225 226 229 230 233 234 234 233 234 233 235 229 228 229 234 238
301 303 305 305 307 308 309 310 312 312 313 310 303 298 288 280 276 269 259 249 243 237 233 236 238 235 236 228 226 228 227 225 227 229 230 232 233 235 234 233 234 234 232 233 232 235 235
300 302 304 306 308 308 307 307 310 312 313 311 305 297 288 283 282 277 264 254 245 239 234 229 226 234 234 234 229 229 230 226 224 226 228 230 233 233 235 234 233 237 235 233 234 238 238
299 301 302 305 306 307 308 308 309 311 313 312 304 294 290 288 288 285 274 261 249 242 235 231 230 229 231 232 233 227 230 230 230 228 228 227 230 233 234 234 235 237 240 235 237 239 239
298 300 301 303 305 307 308 308 310 310 312 311 302 293 292 290 291 288 281 272 259 246 238 233 231 230 224 228 231 234 226 231 231 229 229 229 229 232 233 235 235 233 236 238 238 241 241
301 301 302 304 306 308 310 310 310 310 312 308 300 295 293 292 294 290 279 274 271 257 245 235 231 231 224 221 226 229 232 228 231 232 229 228 229 229 230 231 230 235 237 239 241 239 245
302 303 303 306 308 310 309 309 309 310 311 306 300 296 296 295 295 291 277 270 275 273 264 242 232 230 227 223 222 226 228 231 232 231 231 229 229 227 231 234 236 240 241 242 242 243 245
304 304 306 308 310 310 308 307 307 309 310 306 302 300 299 298 298 291 277 266 273 277 270 264 238 227 228 228 219 215 224 228 226 234 232 228 229 230 231 236 238 237 239 241 246 250 250
304 305 309 311 312 310 307 304 306 309 310 307 305 304 302 300 299 292 276 265 267 276 282 268 258 228 227 228 221 213 214 220 225 222 231 236 236 235 230 232 235 234 235 237 242 244 251
306 308 311 312 312 310 307 304 307 309 312 310 309 306 302 301 300 294 275 263 267 275 285 296 282 241 229 229 223 211 220 222 224 225 230 231 236 235 233 232 233 236 239 238 240 235 243
308 311 313 313 312 308 307 307 308 311 314 312 311 307 305 303 303 294 278 264 267 274 282 301 302 250 236 230 224 225 226 229 230 224 222 224 228 231 230 234 236 240 239 241 240 240 242
311 313 314 313 311 311 311 308 311 315 316 314 312 307 306 305 304 300 284 266 267 265 271 283 310 286 246 232 228 227 231 222 230 229 231 228 217 223 230 233 238 232 230 233 240 240 236
314 315 315 314 313 313 311 310 313 318 315 315 312 308 305 305 310 303 286 266 256 258 261 280 301 251 245 242 234 230 231 220 211 217 217 230 225 223 225 231 231 224 225 231 230 222 240
315 315 314 313 315 313 309 312 318 321 317 315 311 309 306 309 311 301 281 250 247 252 264 266 267 260 210 200 240 231 235 232 216 214 229 229 220 226 220 226 234 235 237 233 235 243 252
316 316 313 315 315 311 312 315 321 323 319 314 311 309 307 310 310 296 273 265 257 248 267 268 268 263 215 243 213 218 230 234 232 225 233 232 233 218 224 227 230 233 236 244 245 247 251
316 313 313 314 314 312 314 317 323 325 319 314 311 308 306 309 309 285 283 290 261 245 244 251 256 217 208 224 252 228 202 223 226 227 229 234 227 220 217 223 229 230 234 233 233 232 226
313 312 313 313 314 313 314 318 324 325 319 314 310 309 305 309 298 288 303 294 261 244 247 252 251 242 235 222 246 250 185 197 212 223 227 218 229 231 221 226 221 222 229 230 235 236 240
313 312 313 312 312 314 315 319 324 325 318 313 310 309 302 301 297 297 285 282 258 244 280 259 250 252 249 239 229 224 207 196 208 204 218 224 220 220 227 224 221 217 224 226 229 232 233
312 312 311 311 311 314 317 320 326 325 317 312 308 310 300 300 302 297 276 254 248 250 254 256 259 254 259 249 237 234 235 229 210 200 201 214 223 221 218 226 229 225 222 219 221 227 224
311 311 310 311 312 314 316 319 325 323 316 309 307 309 298 300 302 299 279 256 248 249 245 248 254 252 250 248 233 222 240 242 239 206 205 197 205 209 213 214 221 219 221 219 221 226 227
310 310 309 310 311 314 316 321 326 321 314 309 307 306 299 303 301 296 285 277 249 247 245 244 248 251 248 250 238 226 236 240 245 238 213 212 195 204 210 213 215 214 219 216 217 220 214
309 309 309 310 311 313 315 320 325 319 314 309 306 303 299 306 303 295 288 275 255 249 250 251 242 239 243 250 249 241 235 238 239 241 228 224 209 206 206 206 216 221 222 223 219 222 219
308 308 309 311 312 313 316 320 324 318 313 310 306 302 302 310 305 302 290 270 253 241 241 247 243 231 236 248 243 243 248 235 235 238 242 243 230 224 218 220 214 218 225 227 227 227 228
308 309 310 312 313 315 318 319 323 317 311 309 304 304 305 311 311 305 287 267 249 236 236 240 239 231 224 224 238 239 240 241 242 241 240 241 245 243 231 234 235 193 214 223 228 225 217
308 310 311 312 313 315 318 319 323 317 309 307 304 308 307 314 315 298 283 264 242 238 236 243 239 237 238 243 246 245 245 246 244 243 242 243 244 247 245 239 239 234 236 230 228 222 228
308 310 311 312 313 317 317 319 322 318 308 306 307 309 307 313 319 291 288 274 252 244 237 242 240 236 235 237 240 244 245 249 245 242 240 242 242 246 248 252 254 216 234 242 235 233 230
308 308 310 312 313 315 316 319 321 318 308 305 308 307 304 312 306 281 292 262 251 240 233 243 245 239 238 238 240 247 248 252 251 249 245 242 247 255 254 256 257 234 239 252 251 240 234
307 308 310 312 312 315 317 318 320 317 308 305 310 307 306 314 296 268 265 256 247 245 239 215 219 213 222 231 236 241 252 257 257 256 261 262 256 256 254 258 264 245 243 250 248 246 239
306 308 311 311 312 316 317 318 318 316 308 307 312 307 307 314 238 281 268 273 269 251 247 230 218 195 221 217 240 242 247 250 253 257 259 258 265 268 262 262 270 245 245 257 258 250 237
Height
5714 5711 5707 5703 5699 5694 5689 5683 5677 5672 5666 5660 5654 5648 5641 5636 5633 5631 5633 5638 5645 5654 5663 5671 5679 5685 5692 5697 5719 5726 5731 5738 5742 5747 5755 5761 5765 5772 5776 5781 5784 5787 5793 5795 5797 5797 5799
5705 5701 5697 5692 5687 5682 5677 5671 5665 5659 5652 5646 5639 5631 5625 5620 5618 5615 5614 5617 5623 5632 5642 5652 5659 5665 5668 5682 5696 5702 5713 5724 5731 5736 5743 5748 5754 5761 5765 5769 5774 5779 5783 5786 5788 5789 5791
5696 5691 5686 5681 5676 5671 5665 5660 5653 5647 5640 5632 5624 5617 5611 5607 5603 5600 5599 5598 5602 5609 5620 5631 5638 5641 5647 5676 5680 5689 5700 5707 5713 5720 5727 5735 5742 5745 5756 5759 5765 5768 5770 5775 5778 5781 5784
5686 5681 5675 5670 5665 5659 5653 5648 5641 5634 5626 5618 5610 5603 5598 5594 5590 5586 5584 5582 5583 5588 5598 5607 5614 5617 5626 5653 5659 5676 5685 5693 5702 5708 5713 5718 5725 5732 5738 5748 5751 5754 5759 5764 5770 5770 5776
5676 5671 5665 5659 5653 5647 5641 5635 5628 5621 5613 5606 5597 5591 5586 5582 5578 5573 5570 5568 5567 5569 5576 5584 5593 5597 5619 5630 5643 5660 5668 5677 5683 5693 5698 5702 5710 5719 5726 5732 5737 5743 5747 5752 5760 5761 5766
5666 5660 5655 5648 5642 5636 5629 5623 5616 5608 5601 5593 5586 5580 5575 5570 5566 5561 5558 5556 5554 5553 5555 5562 5574 5590 5619 5622 5625 5637 5649 5658 5666 5673 5677 5687 5694 5700 5707 5713 5717 5731 5737 5740 5746 5754 5754
5655 5650 5644 5637 5631 5624 5618 5611 5604 5597 5589 5582 5575 5569 5564 5560 5555 5550 5548 5546 5545 5543 5539 5547 5556 5568 5589 5596 5604 5621 5630 5640 5644 5646 5657 5677 5671 5676 5698 5707 5721 5726 5727 5731 5739 5744 5746
5645 5640 5634 5627 5621 5614 5607 5599 5592 5585 5578 5570 5564 5559 5554 5550 5544 5539 5536 5536 5534 5531 5531 5530 5536 5549 5562 5568 5588 5604 5615 5623 5624 5630 5653 5647 5646 5680 5696 5700 5705 5713 5714 5720 5729 5729 5733
5635 5629 5624 5617 5611 5604 5596 5589 5582 5575 5567 5560 5555 5550 5545 5539 5534 5529 5527 5527 5523 5522 5516 5528 5520 5528 5539 5548 5572 5591 5598 5606 5609 5616 5626 5627 5654 5681 5678 5686 5685 5690 5699 5711 5717 5721 5719
5625 5620 5614 5607 5600 5593 5586 5579 5572 5565 5557 5550 5546 5540 5536 5530 5526 5520 5517 5515 5516 5515 5509 5515 5512 5516 5526 5536 5559 5581 5580 5590 5594 5604 5617 5613 5650 5652 5658 5666 5672 5677 5693 5700 5705 5706 5707
5616 5610 5604 5597 5590 5583 5576 5570 5563 5555 5548 5542 5537 5531 5526 5521 5517 5512 5509 5508 5510 5510 5504 5507 5502 5502 5507 5524 5551 5554 5563 5573 5581 5591 5594 5602 5623 5632 5636 5649 5660 5667 5682 5683 5686 5688 5696
5607 5601 5594 5588 5580 5574 5567 5561 5554 5546 5539 5534 5528 5523 5518 5511 5507 5504 5501 5501 5503 5504 5500 5504 5502 5498 5502 5510 5523 5528 5541 5562 5572 5574 5578 5585 5606 5611 5624 5640 5642 5662 5662 5665 5668 5671 5671
5598 5592 5585 5578 5571 5565 5558 5551 5544 5538 5531 5526 5520 5514 5509 5504 5500 5496 5494 5496 5496 5495 5499 5502 5501 5501 5502 5506 5511 5518 5528 5543 5552 5558 5565 5574 5585 5597 5608 5617 5628 5633 5640 5644 5647 5648 5652
5588 5583 5576 5569 5562 5556 5549 5542 5536 5530 5523 5518 5512 5507 5501 5496 5492 5488 5487 5487 5487 5493 5494 5494 5495 5494 5495 5500 5506 5507 5514 5525 5539 5547 5556 5560 5570 5578 5592 5601 5616 5622 5624 5621 5628 5636 5652
5580 5573 5567 5560 5554 5547 5541 5534 5527 5522 5516 5510 5505 5499 5494 5489 5485 5482 5480 5478 5482 5486 5489 5490 5491 5491 5496 5499 5501 5502 5504 5513 5526 5535 5542 5548 5554 5563 5576 5593 5602 5607 5600 5627 5628 5634 5636
5570 5564 5557 5551 5545 5539 5533 5526 5519 5514 5508 5503 5499 5493 5487 5483 5477 5475 5474 5475 5475 5478 5482 5483 5485 5487 5489 5492 5489 5490 5497 5500 5510 5512 5523 5534 5541 5549 5563 5574 5581 5585 5605 5603 5606 5610 5615
5561 5555 5549 5543 5537 5530 5524 5518 5512 5506 5501 5495 5491 5487 5482 5477 5474 5470 5470 5470 5469 5472 5474 5477 5479 5480 5480 5479 5480 5482 5485 5490 5493 5502 5513 5522 5529 5541 5548 5554 5569 5574 5582 5582 5591 5595 5608
5553 5547 5542 5535 5529 5523 5516 5509 5503 5498 5493 5487 5484 5481 5476 5472 5469 5466 5467 5465 5467 5468 5470 5471 5472 5473 5475 5477 5476 5476 5478 5483 5485 5494 5499 5507 5516 5527 5538 5550 5557 5563 5572 5572 5576 5583 5596
5546 5540 5534 5528 5522 5514 5508 5501 5495 5490 5485 5480 5476 5475 5468 5464 5463 5460 5460 5460 5460 5461 5463 5465 5466 5468 5470 5473 5476 5478 5477 5477 5474 5480 5488 5492 5502 5521 5531 5537 5540 5547 5552 5553 5562 5574 5581
5537 5532 5526 5520 5514 5507 5500 5495 5488 5482 5477 5472 5468 5467 5464 5459 5455 5455 5452 5453 5454 5456 5457 5458 5460 5463 5465 5467 5471 5472 5467 5468 5466 5469 5475 5482 5490 5504 5515 5516 5523 5531 5534 5542 5551 5561 5572
5530 5525 5518 5513 5507 5500 5494 5487 5481 5475 5469 5465 5461 5459 5455 5454 5450 5447 5445 5445 5446 5448 5449 5452 5455 5458 5459 5461 5463 5464 5462 5464 5464 5464 5468 5477 5484 5491 5498 5505 5513 5522 5522 5531 5539 5550 5559
5521 5516 5510 5504 5499 5492 5486 5480 5473 5467 5461 5457 5453 5450 5447 5446 5443 5440 5437 5437 5437 5441 5442 5445 5447 5451 5454 5455 5456 5456 5457 5457 5457 5460 5465 5468 5476 5483 5491 5495 5502 5505 5511 5521 5530 5536 5552
5513 5508 5503 5497 5491 5484 5478 5472 5466 5459 5453 5449 5445 5442 5437 5439 5434 5431 5428 5427 5427 5429 5432 5434 5438 5440 5443 5447 5447 5449 5450 5454 5457 5459 5461 5463 5469 5476 5485 5485 5484 5493 5516 5515 5520 5527 5543
5505 5500 5494 5489 5483 5477 5471 5465 5458 5451 5446 5441 5437 5433 5429 5429 5425 5420 5417 5415 5416 5417 5418 5422 5427 5430 5436 5436 5438 5440 5445 5450 5454 5459 5461 5463 5464 5466 5476 5473 5471 5504 5497 5500 5510 5522 5531
5496 5491 5486 5481 5475 5469 5463 5457 5451 5444 5439 5435 5430 5425 5419 5419 5415 5408 5404 5403 5402 5404 5408 5414 5418 5421 5426 5430 5433 5435 5440 5444 5450 5452 5457 5461 5462 5461 5462 5465 5468 5489 5490 5503 5502 5513 5517
5488 5483 5478 5473 5468 5462 5455 5449 5443 5437 5431 5428 5423 5417 5410 5409 5408 5400 5398 5396 5395 5397 5402 5407 5410 5414 5419 5424 5426 5429 5433 5437 5442 5446 5450 5452 5453 5452 5458 5462 5460 5488 5488 5480 5485 5484 5506
5479 5475 5470 5464 5459 5453 5448 5441 5435 5430 5424 5420 5417 5410 5403 5402 5400 5394 5393 5392 5391 5393 5397 5401 5406 5409 5412 5416 5419 5423 5426 5429 5433 5436 5440 5442 5444 5442 5449 5449 5453 5475 5478 5473 5463 5477 5492
5471 5467 5462 5456 5450 5445 5439 5433 5427 5422 5417 5413 5410 5403 5396 5395 5394 5389 5389 5390 5389 5391 5393 5399 5398 5402 5405 5409 5413 5417 5419 5422 5424 5427 5429 5430 5432 5434 5438 5437 5442 5472 5454 5447 5459 5458 5473
5463 5458 5454 5448 5442 5437 5431 5425 5420 5414 5409 5405 5402 5394 5389 5388 5389 5386 5386 5387 5387 5388 5389 5390 5392 5395 5400 5404 5408 5409 5412 5414 5416 5417 5420 5420 5422 5422 5425 5429 5440 5442 5438 5437 5438 5443 5455